Location: Klickitat County Star Party
(45.8642°N, 120.6771°W)
Time: 21:33:11
(UTC-08:00)

UWE-3 - Visible Passes

Search period start: 18 November 2019 00:00
Search period end: 28 November 2019 00:00
Orbit: 586 x 682 km, 97.6° (Epoch: 18 November)

Date Brightness Start Highest point End Pass type
(mag) Time Alt. Az. Time Alt. Az. Time Alt. Az.
18 Nov ? 04:50:38 10° NE 04:54:07 20° E 04:57:31 10° SE visible
18 Nov ? 06:26:18 10° N 06:30:47 47° WNW 06:35:10 10° SW visible
18 Nov ? 17:24:52 10° S 17:29:10 45° W 17:33:36 10° NNW visible
19 Nov ? 05:11:45 10° NNE 05:15:57 32° E 05:20:03 10° SSE visible
19 Nov ? 17:47:06 10° SSW 17:50:57 28° W 17:54:56 10° NW visible
20 Nov ? 05:33:09 10° NNE 05:37:43 53° E 05:42:10 10° S visible
20 Nov ? 18:09:47 10° SW 18:12:49 17° W 18:15:54 10° NW visible
21 Nov ? 05:54:44 10° NNE 05:59:25 87° ESE 06:03:58 10° SSW visible
21 Nov ? 16:53:06 10° SSE 16:57:39 89° ENE 17:02:20 10° NNW visible
21 Nov ? 18:33:53 10° W 18:34:46 10° W 18:35:39 10° WNW visible
22 Nov ? 04:41:16 10° NE 04:44:13 17° E 04:47:06 10° SE visible
22 Nov ? 06:16:28 10° N 06:21:02 58° WNW 06:25:28 10° SSW visible
22 Nov ? 17:14:52 10° S 17:19:20 56° W 17:23:56 10° NNW visible
23 Nov ? 05:02:11 10° NE 05:06:05 26° E 05:09:53 10° SSE visible
23 Nov ? 06:38:20 10° N 06:42:34 36° WNW 06:46:41 10° SW visible
23 Nov ? 17:36:56 10° SSW 17:41:05 34° W 17:45:20 10° NNW visible
24 Nov ? 05:23:28 10° NNE 05:27:52 42° E 05:32:09 10° S visible
24 Nov ? 17:59:25 10° SW 18:02:55 21° W 18:06:29 10° NW visible
25 Nov ? 05:44:58 10° NNE 05:49:36 71° ESE 05:54:04 10° S visible
25 Nov ? 18:22:36 10° WSW 18:24:50 13° W 18:27:04 10° WNW visible
26 Nov ? 04:32:06 10° ENE 04:34:17 13° E 04:36:27 10° ESE visible
26 Nov ? 06:06:39 10° N 06:11:15 71° WNW 06:15:41 10° SSW visible
26 Nov ? 17:04:57 10° S 17:09:30 69° WSW 17:14:12 10° NNW visible
27 Nov ? 04:52:41 10° NE 04:56:11 21° E 04:59:37 10° SE visible
27 Nov ? 06:28:27 10° N 06:32:49 43° WNW 06:37:02 10° SW visible
27 Nov ? 17:26:52 10° SSW 17:31:14 42° W 17:35:41 10° NNW visible
